Location: Unspecified
(35.7250°N, 0.0000°E)
Time: 07:10:53
(UTC+00:00)

Vanguard 2 - Pass Details

Date: 24 June 2019
Orbit: 553 x 2938 km, 32.9° (Epoch: 18 July)

Event Time Altitude Azimuth Distance (km) Brightness Sun altitude
Rises 12:41:27 0° 277° (W) 4,170 11.4 75.1°
Reaches altitude 10° 12:44:02 10° 270° (W) 3,472 11.2 74.7°
Maximum altitude 12:52:40 43° 202° (SSW) 2,523 11.3 73.6°
Drops below altitude 10° 13:06:03 10° 138° (SE) 5,304 11.9 71.5°
Sets 13:11:05 0° 133° (SE) 6,554 12.2 70.7°
